N9XRG Weather Reports


time (UTC)temp
C
wind
direction
speed
KPH
gust
KPH
rain 1hr
cm
rain 24hr
cm
rain mn
cm
humidity
%
barometer
mb
20260507094237 4 117 4.8 6.4 0.00 0.00 0.00 75 1014.5
20260507093734 4 108 4.8 6.4 0.00 0.00 0.00 75 1014.5
20260507093233 4 140 8.0 8.0 0.00 0.00 0.00 75 1014.5
20260507092730 4 87 3.2 6.4 0.00 0.00 0.00 75 1014.1
20260507092226 3 100 3.2 4.8 0.00 0.00 0.00 76 1014.4
20260507091722 3 113 3.2 6.4 0.00 0.00 0.00 76 1014.3
20260507091219 3 105 6.4 6.4 0.00 0.00 0.00 77 1014.4
20260507090719 3 81 4.8 4.8 0.00 0.00 0.00 80 1014.3
20260507090216 3 109 3.2 4.8 0.00 0.00 0.00 81 1014.2
20260507085714 2 99 4.8 6.4 0.00 0.00 0.00 85 1014.5
20260507085210 2 95 3.2 4.8 0.00 0.00 0.00 85 1014.5
20260507084708 2 102 3.2 4.8 0.00 0.00 0.00 86 1014.5
20260507084204 2 110 3.2 4.8 0.00 0.00 0.00 87 1014.5
20260507083701 2 109 4.8 4.8 0.00 0.00 0.00 87 1014.2
20260507083158 2 109 3.2 3.2 0.00 0.00 0.00 86 1014.5
20260507082654 2 106 3.2 4.8 0.00 0.00 0.00 86 1014.4
20260507082150 2 101 3.2 3.2 0.00 0.00 0.00 85 1014.5
20260507081647 2 104 3.2 4.8 0.00 0.00 0.00 83 1014.4
20260507081143 2 111 3.2 3.2 0.00 0.00 0.00 83 1014.4
20260507080640 2 95 3.2 3.2 0.00 0.00 0.00 83 1014.6
20260507080136 3 85 3.2 3.2 0.00 0.00 0.00 83 1014.7
20260507075631 3 108 3.2 4.8 0.00 0.00 0.00 82 1014.5
20260507075127 3 107 3.2 4.8 0.00 0.00 0.00 82 1014.5
20260507074624 3 109 3.2 4.8 0.00 0.00 0.00 84 1014.5
20260507074123 3 102 3.2 4.8 0.00 0.00 0.00 84 1014.5
20260507073618 2 91 3.2 4.8 0.00 0.00 0.00 85 1014.5
20260507073115 2 96 3.2 3.2 0.00 0.00 0.00 86 1014.8
20260507072613 2 112 3.2 4.8 0.00 0.00 0.00 87 1014.5
20260507072110 2 115 4.8 4.8 0.00 0.00 0.00 88 1014.4
20260507071607 2 111 3.2 3.2 0.00 0.00 0.00 88 1014.6
20260507071103 2 87 3.2 3.2 0.00 0.00 0.00 88 1014.6
20260507070601 2 93 3.2 4.8 0.00 0.00 0.00 88 1014.7
20260507070058 3 80 3.2 4.8 0.00 0.00 0.00 88 1014.7
20260507065554 3 105 3.2 3.2 0.00 0.00 0.00 86 1014.7
20260507065051 3 105 3.2 4.8 0.00 0.00 0.00 86 1014.8
20260507064549 3 101 3.2 3.2 0.00 0.00 0.00 86 1014.7
20260507064048 3 96 3.2 4.8 0.00 0.00 0.00 85 1014.7
20260507063544 3 110 3.2 3.2 0.00 0.00 0.00 83 1014.7
20260507063041 3 107 3.2 3.2 0.00 0.00 0.00 83 1014.7
20260507062538 3 108 3.2 3.2 0.00 0.00 0.00 85 1014.8
20260507062036 3 95 3.2 3.2 0.00 0.00 0.00 85 1014.8
20260507061533 3 85 3.2 4.8 0.00 0.00 0.00 85 1014.6
20260507061031 3 103 3.2 3.2 0.00 0.00 0.00 85 1014.8
20260507060529 3 94 3.2 3.2 0.00 0.00 0.00 85 1015.0
20260507060026 4 100 3.2 4.8 0.00 0.00 0.00 83 1014.7
20260507055525 4 87 3.2 3.2 0.00 0.00 0.00 83 1014.9
20260507055022 4 108 3.2 3.2 0.00 0.00 0.00 80 1014.8
20260507054518 5 116 4.8 4.8 0.00 0.00 0.00 81 1014.7
20260507054015 5 105 3.2 3.2 0.00 0.00 0.00 80 1014.6
20260507053513 4 74 3.2 6.4 0.00 0.00 0.00 82 1014.7
20260507053012 4 76 3.2 4.8 0.00 0.00 0.00 85 1014.7
20260507052509 4 113 4.8 4.8 0.00 0.00 0.00 84 1014.8
20260507052006 4 106 3.2 4.8 0.00 0.00 0.00 84 1014.8
20260507051503 4 98 3.2 3.2 0.00 0.00 0.00 84 1014.8
20260507051000 4 113 3.2 4.8 0.00 0.00 0.00 84 1014.7
20260507050456 4 105 3.2 3.2 0.00 0.00 0.00 85 1014.7
20260507045953 4 82 3.2 3.2 0.00 0.00 0.00 84 1014.7
20260507045450 5 99 3.2 3.2 0.00 0.00 0.00 83 1014.8
20260507044947 5 125 3.2 4.8 0.00 0.00 0.00 82 1014.4
20260507044444 5 94 3.2 3.2 0.00 0.00 0.00 81 1014.6
20260507043940 5 102 3.2 3.2 0.00 0.00 0.00 81 1014.5
20260507043436 5 112 3.2 4.8 0.00 0.00 0.00 82 1014.5
20260507042932 5 106 3.2 4.8 0.00 0.00 0.00 83 1014.4
20260507042429 5 109 3.2 4.8 0.00 0.00 0.00 85 1014.5
20260507041925 5 111 4.8 4.8 0.00 0.00 0.00 88 1014.6
20260507041422 5 99 3.2 3.2 0.00 0.00 0.00 88 1014.5
20260507040920 5 105 3.2 4.8 0.00 0.00 0.00 88 1014.5
20260507040415 5 80 3.2 4.8 0.00 0.00 0.00 88 1014.4
20260507035911 5 108 3.2 4.8 0.00 0.03 0.03 87 1014.5
20260507035408 5 106 3.2 3.2 0.00 0.03 0.03 87 1014.6
20260507034904 5 117 3.2 3.2 0.00 0.03 0.03 87 1014.3
20260507034401 5 115 3.2 3.2 0.00 0.03 0.03 88 1014.5
20260507033859 5 101 3.2 3.2 0.00 0.03 0.03 88 1014.4
20260507033358 5 110 3.2 3.2 0.00 0.03 0.03 87 1014.4
20260507032854 5 109 3.2 3.2 0.00 0.03 0.03 86 1014.3
20260507032351 5 108 3.2 3.2 0.00 0.03 0.03 85 1014.4
20260507031847 5 96 3.2 3.2 0.00 0.03 0.03 85 1014.4
20260507031344 6 112 3.2 3.2 0.00 0.03 0.03 82 1014.2
20260507030840 6 94 3.2 3.2 0.00 0.03 0.03 82 1014.3
20260507030338 6 92 3.2 3.2 0.00 0.03 0.03 83 1014.1
20260507025834 6 104 3.2 3.2 0.00 0.03 0.03 81 1014.2
20260507025332 7 99 3.2 3.2 0.00 0.03 0.03 80 1014.3
20260507024830 7 87 3.2 3.2 0.00 0.03 0.03 77 1014.3
20260507024327 7 92 3.2 3.2 0.00 0.03 0.03 75 1014.1
20260507023822 7 99 3.2 3.2 0.00 0.03 0.03 74 1014.2
20260507023319 8 106 3.2 3.2 0.00 0.03 0.03 71 1014.1
20260507022817 8 123 1.6 4.8 0.00 0.03 0.03 69 1014.3
20260507022313 8 88 3.2 3.2 0.00 0.03 0.03 70 1014.2
20260507021809 8 89 3.2 3.2 0.00 0.03 0.03 67 1014.1
20260507021305 8 106 3.2 3.2 0.00 0.03 0.03 68 1014.2
20260507020803 9 107 3.2 3.2 0.00 0.03 0.03 66 1014.0
20260507020259 9 113 3.2 3.2 0.00 0.03 0.03 66 1014.2
20260507015757 9 99 3.2 3.2 0.00 0.03 0.03 74 1014.2
20260507015254 9 108 3.2 3.2 0.00 0.03 0.03 70 1014.1
20260507014751 9 114 3.2 3.2 0.00 0.03 0.03 69 1014.2
20260507014247 9 107 3.2 3.2 0.00 0.03 0.03 69 1014.1
20260507013744 9 105 3.2 3.2 0.00 0.03 0.03 70 1013.9
20260507013241 9 105 3.2 3.2 0.00 0.03 0.03 69 1013.9
20260507012738 10 102 3.2 3.2 0.00 0.03 0.03 69 1013.9
20260507012234 10 106 3.2 3.2 0.00 0.03 0.03 69 1013.6
20260507011732 10 109 3.2 3.2 0.00 0.03 0.03 68 1013.7
20260507011228 10 96 3.2 4.8 0.00 0.03 0.03 63 1013.8
20260507010727 10 110 3.2 4.8 0.00 0.03 0.03 61 1013.8
20260507010224 10 117 3.2 3.2 0.00 0.03 0.03 60 1013.6
20260507005721 10 109 3.2 3.2 0.00 0.03 0.03 60 1013.6
20260507005217 10 92 3.2 4.8 0.00 0.03 0.03 62 1013.3
20260507004714 10 109 3.2 3.2 0.00 0.03 0.03 58 1013.3
20260507004212 10 115 3.2 4.8 0.00 0.03 0.03 58 1013.5
20260507003708 11 89 3.2 4.8 0.00 0.03 0.03 60 1013.2
20260507003203 11 111 3.2 3.2 0.00 0.03 0.03 59 1013.1
20260507002659 11 107 3.2 3.2 0.00 0.03 0.03 57 1013.1
20260507002156 11 96 3.2 3.2 0.00 0.03 0.03 57 1012.9
20260507001652 11 103 3.2 3.2 0.00 0.03 0.03 52 1013.3
20260507001150 11 105 3.2 4.8 0.00 0.03 0.03 51 1013.1
20260507000646 11 98 3.2 4.8 0.00 0.03 0.03 52 1013.1
20260507000142 12 116 3.2 6.4 0.00 0.03 0.03 50 1013.2
20260506235639 12 87 3.2 4.8 0.00 0.03 0.03 50 1013.2
20260506235139 12 106 3.2 4.8 0.00 0.03 0.03 47 1013.1
20260506234637 12 112 3.2 3.2 0.00 0.03 0.03 48 1013.1
20260506234134 12 103 4.8 9.7 0.00 0.03 0.03 46 1012.9
20260506233631 12 77 4.8 6.4 0.00 0.03 0.03 45 1013.3
20260506233128 12 104 4.8 8.0 0.00 0.03 0.03 48 1013.3
20260506232624 12 119 4.8 6.4 0.00 0.03 0.03 44 1013.2
20260506232119 13 114 4.8 6.4 0.00 0.03 0.03 46 1013.3
20260506231617 13 107 3.2 6.4 0.00 0.03 0.03 48 1013.3
20260506231115 13 73 4.8 6.4 0.00 0.03 0.03 44 1013.3
20260506230612 13 61 6.4 6.4 0.00 0.03 0.03 44 1013.1
20260506230109 13 87 4.8 4.8 0.00 0.03 0.03 48 1013.2
20260506225605 13 85 3.2 9.7 0.00 0.03 0.03 44 1013.2
20260506225101 13 95 4.8 6.4 0.00 0.03 0.03 44 1013.1
20260506224559 13 139 1.6 6.4 0.00 0.03 0.03 46 1012.9
20260506224055 13 91 4.8 6.4 0.00 0.03 0.03 45 1012.8
20260506223551 13 143 8.0 8.0 0.00 0.03 0.03 43 1013.3
20260506223047 13 93 3.2 6.4 0.00 0.03 0.03 43 1013.1
20260506222544 13 94 1.6 8.0 0.00 0.03 0.03 43 1013.2
20260506222041 13 108 3.2 6.4 0.00 0.03 0.03 41 1013.1
20260506221538 14 130 4.8 8.0 0.00 0.03 0.03 43 1013.1
20260506221036 14 107 4.8 6.4 0.00 0.03 0.03 45 1012.9
20260506220532 13 103 6.4 6.4 0.00 0.03 0.03 44 1012.9
20260506220028 13 130 9.7 16.1 0.00 0.03 0.03 41 1013.1
20260506215525 14 88 4.8 6.4 0.00 0.03 0.03 45 1012.8
20260506215020 14 126 9.7 9.7 0.00 0.03 0.03 43 1012.9
20260506214518 13 89 3.2 6.4 0.00 0.03 0.03 44 1013.2
20260506214015 13 57 4.8 8.0 0.00 0.03 0.03 43 1012.6
20260506213513 13 81 6.4 6.4 0.00 0.03 0.03 41 1012.7
20260506213010 13 129 8.0 8.0 0.00 0.03 0.03 42 1012.9
20260506212506 13 67 4.8 9.7 0.00 0.03 0.03 43 1013.1
20260506212001 14 156 4.8 12.9 0.00 0.03 0.03 42 1012.9
20260506211457 14 79 3.2 9.7 0.00 0.03 0.03 40 1013.1
20260506210954 15 72 6.4 12.9 0.00 0.03 0.03 41 1013.1
20260506210451 14 89 6.4 9.7 0.00 0.03 0.03 41 1012.9
20260506205948 14 94 4.8 9.7 0.00 0.03 0.03 41 1012.8
20260506205444 15 103 4.8 8.0 0.00 0.03 0.03 40 1012.9
20260506204940 15 11 4.8 6.4 0.00 0.03 0.03 38 1013.1
20260506204438 15 77 4.8 11.3 0.00 0.03 0.03 41 1013.2
20260506203935 15 68 4.8 9.7 0.00 0.03 0.03 41 1013.2
20260506203432 15 38 6.4 12.9 0.00 0.03 0.03 40 1013.2
20260506202929 15 87 6.4 9.7 0.00 0.03 0.03 46 1013.2
20260506202427 15 99 3.2 11.3 0.00 0.03 0.03 38 1013.1
20260506201923 15 73 6.4 11.3 0.00 0.03 0.03 38 1012.9
20260506201421 15 31 8.0 16.1 0.00 0.03 0.03 42 1013.2
20260506200917 15 73 6.4 9.7 0.00 0.03 0.03 43 1013.2
20260506200413 15 127 8.0 9.7 0.00 0.03 0.03 43 1013.1
20260506195910 15 65 3.2 9.7 0.00 0.03 0.03 42 1013.3
20260506195407 15 51 3.2 6.4 0.00 0.03 0.03 40 1013.2
20260506194903 14 97 3.2 4.8 0.00 0.03 0.03 44 1013.3
20260506194400 14 124 6.4 11.3 0.00 0.03 0.03 42 1013.4
20260506193857 15 124 6.4 9.7 0.00 0.03 0.03 41 1013.5
20260506193354 14 117 6.4 14.5 0.00 0.03 0.03 41 1013.4
20260506192850 14 93 4.8 8.0 0.00 0.03 0.03 41 1013.4
20260506192347 14 122 6.4 8.0 0.00 0.03 0.03 43 1013.4
20260506191845 13 106 6.4 9.7 0.00 0.03 0.03 45 1013.6
20260506191341 13 88 3.2 9.7 0.00 0.03 0.03 43 1013.5
20260506190838 13 71 4.8 8.0 0.00 0.03 0.03 44 1013.4
20260506190334 13 51 4.8 9.7 0.00 0.03 0.03 39 1013.4
20260506185831 13 59 4.8 8.0 0.00 0.03 0.03 46 1013.5
20260506185328 13 115 4.8 8.0 0.00 0.03 0.03 45 1013.4
20260506184825 13 78 3.2 6.4 0.00 0.03 0.03 43 1013.6
20260506184322 13 132 4.8 8.0 0.00 0.03 0.03 45 1013.4
20260506183820 13 128 4.8 9.7 0.00 0.03 0.03 43 1013.7
20260506183314 13 84 4.8 9.7 0.00 0.03 0.03 42 1013.3
20260506182812 13 121 3.2 6.4 0.00 0.03 0.03 42 1013.3
20260506182309 13 101 4.8 6.4 0.00 0.03 0.03 44 1013.5
20260506181807 13 93 4.8 8.0 0.00 0.03 0.03 45 1013.7
20260506181305 13 112 3.2 9.7 0.00 0.03 0.03 43 1013.7
20260506180802 12 99 3.2 4.8 0.00 0.03 0.03 46 1013.4
20260506180257 12 108 3.2 6.4 0.00 0.03 0.03 45 1013.7
20260506175754 13 66 4.8 8.0 0.00 0.03 0.03 44 1013.7
20260506175251 13 117 6.4 8.0 0.00 0.03 0.03 44 1013.7
20260506174748 13 81 4.8 8.0 0.00 0.03 0.03 44 1013.3
20260506174245 13 81 1.6 6.4 0.00 0.03 0.03 41 1013.3
20260506173743 13 96 8.0 9.7 0.00 0.03 0.03 43 1013.4
20260506173240 13 109 3.2 8.0 0.00 0.03 0.03 42 1013.3
20260506172736 13 92 6.4 8.0 0.00 0.03 0.03 44 1013.4
20260506172233 13 109 3.2 6.4 0.00 0.03 0.03 40 1013.6
20260506171731 13 82 6.4 14.5 0.00 0.03 0.03 45 1013.3
20260506171228 13 44 8.0 9.7 0.00 0.03 0.03 44 1013.3
20260506170725 13 14 3.2 9.7 0.00 0.03 0.03 41 1013.3
20260506170222 13 131 6.4 6.4 0.00 0.03 0.03 42 1013.4
20260506165720 13 86 6.4 9.7 0.00 0.03 0.03 45 1013.2
20260506165217 13 51 3.2 11.3 0.00 0.03 0.03 42 1013.2
20260506164714 13 72 6.4 6.4 0.00 0.03 0.03 43 1013.5
20260506164211 13 86 4.8 6.4 0.00 0.03 0.03 43 1013.3
20260506163707 13 50 4.8 8.0 0.00 0.03 0.03 43 1013.4
20260506163202 13 52 6.4 9.7 0.00 0.03 0.03 41 1013.3
20260506162659 13 136 4.8 6.4 0.00 0.03 0.03 42 1013.3
20260506162156 13 106 4.8 8.0 0.00 0.03 0.03 42 1013.5
20260506161653 13 94 3.2 6.4 0.00 0.03 0.03 43 1013.5
20260506161150 13 72 6.4 8.0 0.00 0.03 0.03 44 1013.3
20260506160648 13 51 3.2 8.0 0.00 0.03 0.03 41 1013.4
20260506160145 13 32 6.4 6.4 0.00 0.03 0.03 40 1013.4
20260506155643 13 88 4.8 14.5 0.00 0.03 0.03 41 1013.6
20260506155140 14 23 6.4 6.4 0.00 0.03 0.03 40 1013.6
20260506153236 15 86 3.2 8.0 0.00 0.03 0.03 35 1013.4
20260506152733 14 123 3.2 9.7 0.00 0.03 0.03 38 1013.5
20260506152230 15 63 3.2 9.7 0.00 0.03 0.03 40 1013.5
20260506151729 15 61 4.8 9.7 0.00 0.03 0.03 43 1013.4
20260506151225 13 44 6.4 11.3 0.00 0.03 0.03 41 1013.6
20260506150722 13 125 6.4 11.3 0.00 0.03 0.03 44 1013.2
20260506150219 13 133 1.6 6.4 0.00 0.03 0.03 41 1013.3
20260506145716 13 119 3.2 8.0 0.00 0.03 0.03 48 1013.1
20260506145213 14 56 4.8 6.4 0.00 0.03 0.03 44 1013.1
20260506144710 14 121 6.4 11.3 0.00 0.03 0.03 43 1013.1
20260506144207 13 107 1.6 6.4 0.00 0.03 0.03 43 1013.2
20260506143704 12 119 3.2 6.4 0.00 0.03 0.03 45 1012.9
20260506143202 13 73 4.8 6.4 0.00 0.03 0.03 41 1013.2
20260506142701 13 72 3.2 11.3 0.00 0.03 0.03 44 1013.2
20260506142158 13 71 6.4 8.0 0.00 0.03 0.03 46 1012.9
20260506141656 13 19 3.2 9.7 0.00 0.03 0.03 46 1012.7
20260506141154 12 6 6.4 9.7 0.00 0.03 0.03 47 1012.7
20260506140651 12 47 8.0 9.7 0.00 0.03 0.03 48 1012.9
20260506140148 12 27 8.0 8.0 0.00 0.03 0.03 50 1012.9
20260506135645 12 86 6.4 9.7 0.00 0.03 0.03 47 1012.4
20260506135141 12 112 3.2 6.4 0.00 0.03 0.03 51 1012.7
20260506134638 12 75 3.2 6.4 0.00 0.03 0.03 51 1012.7
20260506134133 12 48 3.2 6.4 0.00 0.03 0.03 53 1012.6
20260506133631 12 43 6.4 6.4 0.00 0.03 0.03 53 1012.9
20260506133128 11 87 3.2 6.4 0.00 0.03 0.03 51 1012.7
20260506132625 12 66 3.2 8.0 0.00 0.03 0.03 51 1012.6
20260506132122 12 88 3.2 6.4 0.00 0.03 0.03 56 1012.7
20260506131620 11 58 4.8 8.0 0.00 0.03 0.03 56 1012.6
20260506131116 11 110 4.8 6.4 0.00 0.03 0.03 59 1012.5
20260506130613 11 91 3.2 6.4 0.00 0.03 0.03 57 1012.5
20260506130110 11 42 3.2 8.0 0.00 0.03 0.03 57 1012.3
20260506125608 11 117 4.8 4.8 0.00 0.03 0.03 61 1012.3
20260506125106 10 98 1.6 4.8 0.00 0.03 0.03 67 1012.0
20260506124603 9 75 4.8 4.8 0.00 0.03 0.03 71 1012.4
20260506124101 8 94 3.2 4.8 0.00 0.03 0.03 75 1012.1
20260506123558 8 99 4.8 6.4 0.00 0.03 0.03 72 1011.9
20260506123057 8 45 6.4 6.4 0.00 0.03 0.03 71 1011.9
20260506122553 8 115 1.6 4.8 0.00 0.03 0.03 73 1012.0
20260506122051 8 59 6.4 6.4 0.00 0.03 0.03 76 1012.1
20260506121548 8 71 3.2 4.8 0.00 0.03 0.03 77 1011.9
20260506121044 8 71 1.6 6.4 0.00 0.03 0.03 79 1012.0
20260506120543 7 103 3.2 6.4 0.00 0.03 0.03 83 1011.9
20260506120040 7 86 3.2 4.8 0.00 0.03 0.03 83 1012.1
20260506115538 7 98 3.2 6.4 0.00 0.03 0.03 86 1011.8
20260506115036 7 59 3.2 6.4 0.00 0.03 0.03 90 1011.4
20260506114533 7 98 3.2 4.8 0.00 0.03 0.03 95 1011.5
20260506114031 7 105 3.2 4.8 0.00 0.03 0.03 96 1011.6
20260506113529 6 96 3.2 4.8 0.00 0.03 0.03 96 1011.3
20260506113026 6 97 4.8 4.8 0.00 0.03 0.03 96 1011.5
20260506112522 6 85 3.2 3.2 0.00 0.03 0.03 96 1011.3
20260506112020 6 98 3.2 4.8 0.00 0.03 0.03 96 1011.1
20260506111518 6 107 3.2 4.8 0.00 0.03 0.03 96 1011.1
20260506111015 6 104 3.2 4.8 0.00 0.03 0.03 96 1010.6
20260506110512 6 105 3.2 4.8 0.00 0.03 0.03 96 1010.9
20260506110009 6 107 4.8 6.4 0.00 0.03 0.03 96 1010.8
20260506105505 7 117 3.2 3.2 0.00 0.03 0.03 96 1010.6
20260506105003 7 75 3.2 3.2 0.00 0.03 0.03 96 1010.5
20260506104501 7 85 3.2 3.2 0.00 0.03 0.03 96 1010.6
20260506103958 7 77 3.2 4.8 0.00 0.03 0.03 96 1010.6
20260506103455 7 112 3.2 3.2 0.00 0.03 0.03 96 1010.4
20260506102952 7 111 3.2 6.4 0.00 0.03 0.03 96 1010.2
20260506102450 7 101 3.2 4.8 0.00 0.03 0.03 96 1010.0
20260506101947 7 74 1.6 4.8 0.00 0.03 0.03 96 1010.1
20260506101444 7 95 3.2 4.8 0.00 0.03 0.03 96 1010.5
20260506100941 7 95 3.2 4.8 0.00 0.03 0.03 96 1010.2
20260506100439 7 122 4.8 4.8 0.00 0.03 0.03 96 1009.9
20260506095937 7 156 0.0 6.4 0.00 0.03 0.03 96 1009.8
20260506095435 7 107 3.2 4.8 0.00 0.03 0.03 96 1009.9
20260506094931 7 101 3.2 4.8 0.00 0.03 0.03 96 1010.0